* Astronomy

Members Login
Username 
 
Password 
    Remember Me  
Post Info TOPIC: Asteroid 2012 BJ86


L

Posts: 131433
Date:
RE: Asteroid 2012 BJ86
Permalink  
 


Orbital elements:
2012 BJ86                                           PHA, Earth MOID = 0.0034 AU
Epoch 2014 Dec. 9.0 TT = JDT 2457000.5                  MPC
M  26.66181              (2000.0)            P               Q
n   0.35353503     Peri.   99.35567     +0.74478583     -0.66701261
a   1.9808325      Node   302.48412     +0.60270586     +0.68506831
e   0.6380398      Incl.    1.33847     +0.28642574     +0.29287471
P   2.79           H   21.4           G   0.15           U   2

MPEC 2015 - B171



__________________


L

Posts: 131433
Date:
Permalink  
 

The 130 - 300 metre wide asteroid 2012 BJ86 will make a close pass (71.5 lunar distances, 0.1838 AU), travelling at 22.22 km/second, to the Earth-Moon system on the 8th August 2014 @ 00:04 UT ±04:18. 

See more

The Lunar Distance (LD), the distance between Earth and the Moon, equals 384,401 km, (or 0.00256 AU).



__________________


L

Posts: 131433
Date:
Permalink  
 

Orbital elements:
2012 BJ86                                           PHA, Earth MOID = 0.0033 AU
Epoch 2012 Mar. 14.0 TT = JDT 2456000.5                 MPC
M  33.11132              (2000.0)            P               Q
n   0.35226295     Peri.   99.36795     +0.74389292     -0.66800855
a   1.9855983      Node   302.54849     +0.60361721     +0.68425149
e   0.6390652      Incl.    1.33883     +0.28682675     +0.29251407
P   2.80           H   21.8           G   0.15           U   8

MPEC 2012 - B106



__________________
Page 1 of 1  sorted by
 
Quick Reply

Please log in to post quick replies.



Create your own FREE Forum
Report Abuse
Powered by ActiveBoard